User: anonymous   Login
Location: Unspecified
(0.0000°N, 0.0000°E)
Time: 16:41:50
(UTC+00:00)
Language:

Courier 1B - Orbit

View from above orbital plane
View from above orbital plane
View from above satellite
View from above satellite

Ground track
Ground track

The orbit data is extracted from the following two-line orbital elements,

1 00058U 60013A   21101.95195091  .00000089  00000-0  95792-5 0  9991
2 00058  28.3292  20.2657 0164894  20.5871 340.1227 13.46325890978877
Epoch (UTC): 11 April 2021 22:50:48
Eccentricity: 0.0164894
inclination: 28.3292°
perigee height: 963 km
apogee height: 1209 km
right ascension of ascending node: 20.2657°
argument of perigee: 20.5871°
revolutions per day: 13.46325890
mean anomaly at epoch: 340.1227°
orbit number at epoch: 97887

The dashed part of the orbit path shows where the satellite is in the earth's shadow,  

DLR